AirNav   Duncan Aviation - Near you to keep you 
flying
 
 499 users online  

PA50 Bloomsburg Hospital Heliport
Bloomsburg, Pennsylvania, USA

GOING TO BLOOMSBURG?


FAA INFORMATION EFFECTIVE 15 JULY 2021

Location

FAA Identifier: PA50
Lat/Long: 41-00-36.1500N 076-27-08.1000W
41-00.602500N 076-27.135000W
41.0100417,-76.4522500
(estimated)
Elevation: 660 ft. / 201 m (estimated)
Variation: 11W (1985)
Time zone: UTC -4 (UTC -5 during Standard Time)
Zip code: 17815

Heliport Operations

Heliport use: Private use, MEDICAL
Activation date: 02/1989
Control tower: no
ARTCC: NEW YORK CENTER
FSS: WILLIAMSPORT FLIGHT SERVICE STATION
Attendance: UNATNDD
Wind indicator: lighted
Segmented circle: no
Lights: SS-SR

Heliport Communications

WX AWOS-3 at 79PN (7 nm W): 118.075 (570-271-8192)
WX AWOS-3 at N79 (11 nm SW): 119.175 (570-672-0389)
WX AWOS-3 at ZER (19 nm S): 127.575 (570-544-2778)

Nearby radio navigation aids

VOR radial/distance  VOR name  Freq  Var
MIPr104/9.7MILTON VORTAC109.2009W
SEGr064/23.6SELINSGROVE VOR/DME110.4008W
FQMr153/24.5WILLIAMSPORT VOR/DME114.4009W
RAVr025/28.2RAVINE VORTAC114.6011W
LVZr255/37.9WILKES-BARRE VORTAC111.6010W

 
NDB name  Hdg/Dist  Freq  Var  ID
BELLGROVE018/34.832810WBZJ -... --.. .---

Heliport Services

Runway Information

Helipad H1

Dimensions: 70 x 70 ft. / 21 x 21 m
Surface: asphalt
Runway edge lights: PERI
Operational restrictions: PRIMARY APCH/DEP HEADING 310/130 DEGREES.
Latitude: 41-00.602500N
Longitude: 076-27.135000W
Elevation: 660.0 ft.
Traffic pattern: leftleft

Heliport Ownership and Management from official FAA records

Ownership: Privately-owned
Owner: BLOOMSBURG HOSPITAL
100 N. ACADEMY AVE
DANVILLE, PA 17822
Phone 570-387-2190
Manager: RICHARD SMITH
100 N. ACADEMY AVE
DANVILLE, PA 17822
Phone 570-271-5120

Additional Remarks

FOR CD CTC WILKES-BARRE APCH AT 570-655-2084.

Instrument Procedures

There are no published instrument procedures at PA50.

Some nearby airports with instrument procedures:

N13 - Bloomsburg Municipal Airport (1 nm SE)
8N8 - Danville Airport (9 nm SW)
N79 - Northumberland County Airport (11 nm SW)
KZER - Schuylkill County/Joe Zerbey Airport (19 nm S)
KHZL - Hazleton Regional Airport (21 nm E)
 
Loc | Ops | Rwys | IFR | FBO | Links
Com | Nav | Svcs | Stats | Notes
Area around PA50 (Bloomsburg Hospital Heliport)
 
Road maps at: MapQuest Bing Google
 
Aerial photo
No photo
 
Sectional chart

 
Airport distance calculator
Flying to Bloomsburg Hospital Heliport? Find the distance to fly.

From to PA50

Sunrise and sunset
Times for 31-Jul-2021
 Local
(UTC-4)
 Zulu
(UTC)
Morning civil twilight05:3109:31
Sunrise06:0210:02
Sunset20:2300:23
Evening civil twilight20:5400:54

Current date and time
Zulu (UTC)  31-Jul-2021 06:23:59
Local (UTC-4)  31-Jul-2021 02:23:59
 
METAR
KHZL 
21nm E 
310035Z AUTO 00000KT 10SM CLR 18/10 A3002 RMK AO2
KSEG 
22nm SW 
310553Z AUTO 00000KT 10SM CLR 12/11 A3003 RMK AO2 SLP165 T01220106 10222 20122 50004
KIPT 
25nm NW 
310554Z AUTO 27003KT 10SM CLR 13/11 A3001 RMK AO2 SLP161 T01330106 10222 20128 52000
K22N 
34nm E 
310035Z AUTO 00000KT 10SM CLR 18/13 A2996 RMK AO2
KMUI 
36nm S 
310556Z AUTO 00000KT 10SM CLR 16/11 A3002 RMK AO2 SLP166 T01550107 10241 20153 52008
KAVP 
38nm NE 
310554Z 00000KT 10SM CLR 13/11 A3002 RMK AO2 SLP159 T01280106 10206 20128 58001
TAF
KIPT 
25nm NW 
310528Z 3106/0106 00000KT P6SM SKC FM311200 26005KT P6SM SCT030 SCT250 FM010000 00000KT P6SM SCT100
NOTAMs
Click for the latest NOTAMs
NOTAMs are issued by the DoD/FAA and will open in a separate window not controlled by AirNav.

 

 
 

Would you like to see your business listed on this page?

 If your business provides an interesting product or service to pilots, flight crews, aircraft, or users of the Bloomsburg Hospital Heliport, you should consider listing it here.  To start the listing process, click on the button below
 
Add a business
 

Other Pages about Bloomsburg Hospital Heliport

Update a link
 
Copyright © AirNav, LLC. All rights reserved. Privacy Policy  Contact